Lid_Strength_Index
1 2 2 2 3 3 3 3 3 3 3 3 3 3 2 2 2 7 9 6 6 2 2 6 9 10 10 11 11 13 16 18 18 17 17 15 14 12 11 12 11 9 10 9 8
-0 1 2 2 2 3 3 3 3 3 3 3 3 2 2 1 6 9 4 3 2 2 7 10 11 10 11 12 12 14 17 17 16 16 16 14 14 13 13 13 12 11 9 9 7
-1 -0 1 2 2 2 3 3 3 3 3 3 3 3 2 2 9 9 2 3 2 3 7 8 10 11 13 13 14 15 16 16 15 14 14 14 14 12 13 14 12 12 10 10 9
-1 -1 -0 1 1 2 2 3 3 3 3 3 3 2 2 5 14 8 2 1 2 5 8 10 11 12 14 15 13 16 14 14 13 13 14 13 12 13 13 13 11 10 10 10 9
0 0 -1 0 0 1 2 2 2 3 3 3 3 2 6 12 11 6 1 3 7 8 10 11 12 12 14 14 14 15 15 13 13 13 14 12 13 13 12 11 10 10 10 10 10
1 0 -0 -0 -0 0 1 1 1 2 2 3 3 3 8 15 8 6 6 7 8 9 11 11 12 11 13 14 15 14 14 14 13 13 13 13 14 12 12 11 11 11 11 10 10
1 1 1 0 -1 -0 0 1 1 1 1 2 3 6 11 13 7 7 6 7 8 9 11 10 10 11 12 14 12 13 16 15 14 14 14 13 15 14 12 11 11 11 11 11 10
2 1 1 0 -0 -1 -1 1 1 1 1 2 2 8 14 8 8 7 6 7 7 8 9 9 9 10 12 12 13 15 16 19 16 14 14 15 17 16 13 12 12 11 11 11 11
2 1 1 1 0 -1 -1 -0 1 1 1 2 8 9 14 7 10 7 7 8 8 9 9 8 10 12 13 15 18 18 20 19 17 14 15 16 17 15 13 12 12 12 12 12 12
2 2 1 1 -0 -0 -1 -0 0 2 5 5 7 12 11 12 9 9 7 7 9 9 10 11 13 15 16 18 21 20 19 18 19 16 16 17 15 13 13 12 12 12 12 12 12
2 2 2 1 0 -0 1 3 7 9 10 10 11 12 10 8 8 9 8 8 9 11 14 13 16 18 16 16 17 18 18 18 17 15 16 17 15 14 13 13 13 12 12 12 12
2 2 2 2 1 -0 2 4 7 8 9 8 10 11 9 7 10 10 7 11 12 14 14 15 17 16 15 15 16 17 18 18 17 16 17 19 17 14 15 14 12 12 12 12 12
2 2 1 2 1 1 3 4 6 6 8 8 9 11 10 9 11 10 8 11 13 14 15 17 16 15 14 16 16 18 18 19 19 18 18 18 19 17 16 15 14 13 12 11 11
2 2 1 1 2 3 3 3 5 4 12 11 10 9 8 9 11 8 7 10 13 15 14 15 15 15 16 16 16 18 16 17 18 19 22 20 23 19 18 16 14 14 13 12 12
2 2 1 1 4 4 3 5 3 4 23 12 12 8 9 9 10 10 7 10 13 14 14 16 15 16 17 16 15 17 16 17 18 19 21 22 22 20 19 17 16 14 14 13 13
4 2 1 2 2 3 3 3 3 13 19 13 12 12 12 11 11 10 9 9 11 14 15 15 13 15 16 15 16 15 17 17 19 20 24 22 22 21 19 17 16 16 14 13 14
3 4 4 2 5 2 3 4 14 18 14 17 15 12 13 13 12 11 11 13 14 18 18 17 16 15 14 16 15 17 19 23 24 24 23 22 23 20 18 17 15 15 14 14 15
3 3 4 4 2 2 4 10 17 18 17 13 13 13 15 13 14 13 13 14 12 14 19 19 20 16 15 16 17 18 19 22 25 24 23 22 22 18 17 16 16 16 14 14 16
3 6 6 4 3 3 8 15 15 17 12 13 13 16 16 13 14 14 14 14 13 13 17 19 18 16 15 15 16 17 19 18 21 26 23 21 20 17 18 17 16 16 14 14 15
5 8 7 4 2 5 11 13 16 12 11 12 14 15 20 16 15 15 15 13 13 11 12 14 19 17 16 15 16 18 17 20 21 25 25 22 22 19 19 18 17 16 16 14 15
6 10 8 4 3 8 14 13 14 11 10 11 12 17 14 16 16 15 14 12 11 11 11 13 16 18 17 18 18 18 19 20 19 20 22 23 21 18 18 17 16 15 15 14 15
8 14 7 3 11 10 13 13 9 11 9 10 11 12 13 14 15 15 14 12 9 10 13 12 14 18 19 17 16 17 18 19 21 22 22 21 20 18 18 18 16 15 15 15 15
9 12 7 4 13 13 14 13 10 10 10 11 12 11 12 14 16 14 13 10 10 10 12 12 15 18 18 16 18 19 18 19 19 20 21 22 19 17 19 19 18 15 15 15 16
9 14 10 8 8 13 17 13 12 9 9 9 11 9 11 13 14 15 13 12 12 10 8 9 14 15 18 18 16 20 19 18 18 21 20 20 19 17 18 18 18 16 16 16 15
9 15 14 15 12 11 11 13 14 13 10 8 10 10 12 15 15 17 14 13 12 9 9 12 16 15 14 15 17 18 18 18 19 18 19 17 18 15 15 17 18 17 16 16 16
11 14 10 13 13 12 11 13 13 12 10 12 11 10 10 12 11 14 13 14 13 11 10 11 15 16 15 14 16 18 17 18 18 18 17 17 18 16 16 18 18 17 16 15 14
7 7 12 12 12 15 14 14 13 10 10 10 10 10 11 10 8 8 8 9 10 12 12 13 15 17 18 19 17 18 17 17 17 19 17 19 16 16 16 16 16 17 16 15 14